Time,TemperatureF,DewpointF,PressureIn,WindDirection,WindDirectionDegrees,WindSpeedMPH,WindSpeedGustMPH,Humidity,HourlyPrecipIn,Conditions,Clouds,dailyrainin,SoftwareType,DateUTC
2013-07-24 00:04:00,80.8,66.0,-100.00,West,265,0.0,1.0,61,0.00,,,0.00,,2013-07-24 05:04:00,
2013-07-24 00:09:00,80.8,67.0,-100.00,West,265,0.0,1.0,63,0.00,,,0.00,,2013-07-24 05:09:00,
2013-07-24 00:14:00,80.7,66.0,-100.00,West,265,0.0,1.0,63,0.00,,,0.00,,2013-07-24 05:14:00,
2013-07-24 00:19:00,80.6,64.0,-100.00,West,265,0.0,1.0,59,0.00,,,0.00,,2013-07-24 05:19:00,
2013-07-24 00:24:00,80.6,63.0,-100.00,WNW,288,0.0,0.0,57,0.00,,,0.00,,2013-07-24 05:24:00,
2013-07-24 00:29:00,80.5,66.0,-100.00,West,265,0.0,0.0,62,0.00,,,0.00,,2013-07-24 05:29:00,
2013-07-24 00:34:00,80.5,62.0,-100.00,WNW,288,0.0,0.0,55,0.00,,,0.00,,2013-07-24 05:34:00,
2013-07-24 00:39:00,80.3,65.0,-100.00,West,265,0.0,0.0,60,0.00,,,0.00,,2013-07-24 05:39:00,
2013-07-24 00:44:00,80.3,68.0,-100.00,WNW,288,0.0,0.0,67,0.00,,,0.00,,2013-07-24 05:44:00,
2013-07-24 00:49:00,80.3,70.0,-100.00,West,265,0.0,1.0,71,0.00,,,0.00,,2013-07-24 05:49:00,
2013-07-24 00:54:00,80.2,69.0,-100.00,West,265,0.0,1.0,70,0.00,,,0.00,,2013-07-24 05:54:00,
2013-07-24 00:59:00,80.1,68.0,-100.00,West,265,0.0,0.0,67,0.00,,,0.00,,2013-07-24 05:59:00,
2013-07-24 01:04:00,80.1,68.0,-100.00,West,265,0.0,1.0,69,0.00,,,0.00,,2013-07-24 06:04:00,
2013-07-24 01:09:00,80.0,68.0,-100.00,West,268,0.0,1.0,69,0.00,,,0.00,,2013-07-24 06:09:00,
2013-07-24 01:14:00,80.0,70.0,-100.00,West,265,0.0,1.0,74,0.00,,,0.00,,2013-07-24 06:14:00,
2013-07-24 01:19:00,80.0,71.0,-100.00,West,265,0.0,1.0,75,0.00,,,0.00,,2013-07-24 06:19:00,
2013-07-24 01:24:00,78.9,69.0,-100.00,West,265,0.0,1.0,72,0.00,,,0.00,,2013-07-24 06:24:00,
2013-07-24 01:29:00,78.8,71.0,-100.00,West,265,0.0,1.0,79,0.00,,,0.00,,2013-07-24 06:29:00,
2013-07-24 01:34:00,78.8,70.0,-100.00,West,265,0.0,1.0,75,0.00,,,0.00,,2013-07-24 06:34:00,
2013-07-24 01:39:00,78.6,70.0,-100.00,West,265,0.0,1.0,77,0.00,,,0.00,,2013-07-24 06:39:00,
2013-07-24 01:44:00,78.6,71.0,-100.00,West,265,0.0,0.0,78,0.00,,,0.00,,2013-07-24 06:44:00,
2013-07-24 01:49:00,78.6,70.0,-100.00,West,265,0.0,1.0,77,0.00,,,0.00,,2013-07-24 06:49:00,
2013-07-24 01:54:00,78.5,71.0,-100.00,West,265,0.0,1.0,80,0.00,,,0.00,,2013-07-24 06:54:00,
2013-07-24 01:59:00,78.5,72.0,-100.00,West,265,0.0,1.0,81,0.00,,,0.00,,2013-07-24 06:59:00,
2013-07-24 02:04:00,78.5,74.0,-100.00,West,265,0.0,0.0,89,0.00,,,0.00,,2013-07-24 07:04:00,
2013-07-24 02:09:00,78.4,74.0,-100.00,West,265,0.0,1.0,88,0.00,,,0.00,,2013-07-24 07:09:00,
2013-07-24 02:14:00,78.4,75.0,-100.00,West,265,0.0,1.0,91,0.00,,,0.00,,2013-07-24 07:14:00,
2013-07-24 02:19:00,78.4,75.0,-100.00,West,265,0.0,1.0,92,0.00,,,0.00,,2013-07-24 07:19:00,
2013-07-24 02:24:00,78.3,76.0,-100.00,West,265,0.0,1.0,93,0.00,,,0.00,,2013-07-24 07:24:00,
2013-07-24 02:29:00,78.2,72.0,-100.00,West,265,0.0,0.0,83,0.00,,,0.00,,2013-07-24 07:29:00,
2013-07-24 02:34:00,78.1,73.0,-100.00,West,265,0.0,1.0,86,0.00,,,0.00,,2013-07-24 07:34:00,
2013-07-24 02:39:00,78.1,73.0,-100.00,West,265,0.0,1.0,85,0.00,,,0.00,,2013-07-24 07:39:00,
2013-07-24 02:44:00,78.0,74.0,-100.00,West,265,0.0,0.0,88,0.00,,,0.00,,2013-07-24 07:44:00,
2013-07-24 02:49:00,78.0,73.0,-100.00,West,265,0.0,1.0,87,0.00,,,0.00,,2013-07-24 07:49:00,
2013-07-24 02:54:00,78.0,70.0,-100.00,West,265,0.0,1.0,79,0.00,,,0.00,,2013-07-24 07:54:00,
2013-07-24 02:59:00,78.0,73.0,-100.00,West,265,0.0,1.0,85,0.00,,,0.00,,2013-07-24 07:59:00,
2013-07-24 03:04:00,78.0,72.0,-100.00,West,265,0.0,1.0,83,0.00,,,0.00,,2013-07-24 08:04:00,
2013-07-24 03:09:00,76.9,71.0,-100.00,West,265,0.0,1.0,83,0.00,,,0.00,,2013-07-24 08:09:00,
2013-07-24 03:14:00,76.9,71.0,-100.00,West,265,0.0,1.0,84,0.00,,,0.00,,2013-07-24 08:14:00,
2013-07-24 03:19:00,76.8,72.0,-100.00,West,265,0.0,1.0,86,0.00,,,0.00,,2013-07-24 08:19:00,
2013-07-24 03:24:00,76.8,72.0,-100.00,West,265,0.0,0.0,87,0.00,,,0.00,,2013-07-24 08:24:00,
2013-07-24 03:29:00,76.7,74.0,-100.00,West,265,0.0,0.0,94,0.00,,,0.00,,2013-07-24 08:29:00,
2013-07-24 03:34:00,76.7,74.0,-100.00,West,265,0.0,0.0,93,0.00,,,0.00,,2013-07-24 08:34:00,
2013-07-24 03:39:00,76.6,75.0,-100.00,West,265,0.0,0.0,97,0.00,,,0.00,,2013-07-24 08:39:00,
2013-07-24 03:44:00,76.6,72.0,-100.00,West,265,0.0,1.0,87,0.00,,,0.00,,2013-07-24 08:44:00,
2013-07-24 03:49:00,76.6,72.0,-100.00,West,265,0.0,1.0,86,0.00,,,0.00,,2013-07-24 08:49:00,
2013-07-24 03:54:00,76.6,75.0,-100.00,West,265,0.0,1.0,95,0.00,,,0.00,,2013-07-24 08:54:00,
2013-07-24 03:59:00,76.6,75.0,-100.00,NW,310,0.0,1.0,95,0.00,,,0.00,,2013-07-24 08:59:00,
2013-07-24 04:04:00,76.6,73.0,-100.00,NW,310,0.0,1.0,91,0.00,,,0.00,,2013-07-24 09:04:00,
2013-07-24 04:09:00,76.6,74.0,-100.00,NW,310,0.0,1.0,92,0.00,,,0.00,,2013-07-24 09:09:00,
2013-07-24 04:14:00,76.6,75.0,-100.00,West,265,0.0,1.0,95,0.00,,,0.00,,2013-07-24 09:14:00,
2013-07-24 04:19:00,76.6,75.0,-100.00,West,265,0.0,1.0,96,0.00,,,0.00,,2013-07-24 09:19:00,
2013-07-24 04:24:00,76.5,73.0,-100.00,West,265,0.0,1.0,91,0.00,,,0.00,,2013-07-24 09:24:00,
2013-07-24 04:29:00,76.5,73.0,-100.00,West,265,0.0,1.0,92,0.00,,,0.00,,2013-07-24 09:29:00,
2013-07-24 04:34:00,76.5,76.0,-100.00,WNW,282,0.0,1.0,100,0.00,,,0.00,,2013-07-24 09:34:00,
2013-07-24 04:39:00,76.4,74.0,-100.00,West,265,0.0,1.0,94,0.00,,,0.00,,2013-07-24 09:39:00,
2013-07-24 04:44:00,76.4,73.0,-100.00,WNW,288,0.0,1.0,91,0.00,,,0.00,,2013-07-24 09:44:00,
2013-07-24 04:49:00,76.4,69.0,-100.00,WNW,288,0.0,1.0,80,0.00,,,0.00,,2013-07-24 09:49:00,
2013-07-24 04:54:00,76.4,73.0,-100.00,West,265,0.0,1.0,91,0.00,,,0.00,,2013-07-24 09:54:00,
2013-07-24 04:59:00,76.3,74.0,-100.00,West,265,0.0,1.0,93,0.00,,,0.00,,2013-07-24 09:59:00,
2013-07-24 05:04:00,76.3,73.0,-100.00,West,265,0.0,1.0,91,0.00,,,0.00,,2013-07-24 10:04:00,
2013-07-24 05:09:00,76.3,72.0,-100.00,West,265,0.0,1.0,88,0.00,,,0.00,,2013-07-24 10:09:00,
2013-07-24 05:14:00,76.2,71.0,-100.00,West,265,0.0,1.0,84,0.00,,,0.00,,2013-07-24 10:14:00,
2013-07-24 05:19:00,76.1,63.0,-100.00,West,265,0.0,1.0,65,0.00,,,0.00,,2013-07-24 10:19:00,
2013-07-24 05:24:00,76.1,64.0,-100.00,West,265,0.0,0.0,67,0.00,,,0.00,,2013-07-24 10:24:00,
2013-07-24 05:29:00,76.1,72.0,-100.00,West,265,0.0,0.0,89,0.00,,,0.00,,2013-07-24 10:29:00,
2013-07-24 05:34:00,76.0,71.0,-100.00,West,265,0.0,1.0,87,0.00,,,0.00,,2013-07-24 10:34:00,
2013-07-24 05:39:00,76.0,71.0,-100.00,West,265,0.0,1.0,85,0.00,,,0.00,,2013-07-24 10:39:00,
2013-07-24 05:44:00,75.9,69.0,-100.00,West,265,0.0,0.0,82,0.00,,,0.00,,2013-07-24 10:44:00,
2013-07-24 05:49:00,75.9,72.0,-100.00,West,265,0.0,1.0,89,0.00,,,0.00,,2013-07-24 10:49:00,
2013-07-24 05:54:00,75.8,71.0,-100.00,West,265,0.0,1.0,86,0.00,,,0.00,,2013-07-24 10:54:00,
2013-07-24 05:59:00,75.8,71.0,-100.00,West,265,0.0,1.0,87,0.00,,,0.00,,2013-07-24 10:59:00,
2013-07-24 06:04:00,75.8,71.0,-100.00,West,265,0.0,1.0,87,0.00,,,0.00,,2013-07-24 11:04:00,
2013-07-24 06:09:00,75.7,73.0,-100.00,West,265,0.0,0.0,93,0.00,,,0.00,,2013-07-24 11:09:00,
2013-07-24 06:14:00,75.7,73.0,-100.00,West,265,0.0,0.0,93,0.00,,,0.00,,2013-07-24 11:14:00,
2013-07-24 06:19:00,75.6,70.0,-100.00,West,265,0.0,0.0,84,0.00,,,0.00,,2013-07-24 11:19:00,
2013-07-24 06:24:00,75.6,72.0,-100.00,West,265,0.0,0.0,89,0.00,,,0.00,,2013-07-24 11:24:00,
2013-07-24 06:29:00,75.6,70.0,-100.00,West,265,0.0,0.0,85,0.00,,,0.00,,2013-07-24 11:29:00,
2013-07-24 06:39:00,75.5,67.0,-100.00,West,265,0.0,0.0,77,0.00,,,0.00,,2013-07-24 11:39:00,
2013-07-24 06:44:00,75.5,69.0,-100.00,West,265,0.0,0.0,82,0.00,,,0.00,,2013-07-24 11:44:00,
2013-07-24 06:49:00,75.5,69.0,-100.00,West,265,0.0,1.0,82,0.00,,,0.00,,2013-07-24 11:49:00,
2013-07-24 06:54:00,75.5,71.0,-100.00,West,265,0.0,1.0,88,0.00,,,0.00,,2013-07-24 11:54:00,
2013-07-24 06:59:00,75.4,70.0,-100.00,West,265,0.0,0.0,85,0.00,,,0.00,,2013-07-24 11:59:00,
2013-07-24 07:04:00,75.4,73.0,-100.00,West,265,0.0,0.0,93,0.00,,,0.00,,2013-07-24 12:04:00,
2013-07-24 07:09:00,75.4,72.0,-100.00,West,265,0.0,0.0,91,0.00,,,0.00,,2013-07-24 12:09:00,
2013-07-24 07:14:00,75.4,72.0,-100.00,West,265,0.0,0.0,91,0.00,,,0.00,,2013-07-24 12:14:00,
2013-07-24 07:19:00,75.4,71.0,-100.00,West,265,0.0,0.0,87,0.00,,,0.00,,2013-07-24 12:19:00,
2013-07-24 07:24:00,75.5,70.0,-100.00,West,265,0.0,0.0,85,0.00,,,0.00,,2013-07-24 12:24:00,
2013-07-24 07:29:00,75.5,70.0,-100.00,West,265,0.0,0.0,84,0.00,,,0.00,,2013-07-24 12:29:00,
2013-07-24 07:34:00,75.6,71.0,-100.00,West,265,0.0,1.0,87,0.00,,,0.00,,2013-07-24 12:34:00,
2013-07-24 07:44:00,75.7,72.0,-100.00,West,265,0.0,1.0,89,0.00,,,0.00,,2013-07-24 12:44:00,
2013-07-24 07:49:00,75.8,73.0,-100.00,West,265,0.0,0.0,92,0.00,,,0.00,,2013-07-24 12:49:00,
2013-07-24 07:54:00,75.8,72.0,-100.00,West,277,0.0,1.0,91,0.00,,,0.00,,2013-07-24 12:54:00,
2013-07-24 07:59:00,75.9,73.0,-100.00,WNW,288,0.0,1.0,91,0.00,,,0.00,,2013-07-24 12:59:00,
2013-07-24 08:04:00,76.0,66.0,-100.00,WNW,288,0.0,1.0,72,0.00,,,0.00,,2013-07-24 13:04:00,
2013-07-24 08:09:00,76.1,66.0,-100.00,West,265,0.0,1.0,73,0.00,,,0.00,,2013-07-24 13:09:00,
2013-07-24 08:14:00,76.3,64.0,-100.00,WNW,288,0.0,1.0,68,0.00,,,0.00,,2013-07-24 13:14:00,
2013-07-24 08:19:00,76.5,65.0,-100.00,NW,310,0.0,1.0,68,0.00,,,0.00,,2013-07-24 13:19:00,
2013-07-24 08:24:00,76.8,58.0,-100.00,NW,310,0.0,1.0,54,0.00,,,0.00,,2013-07-24 13:24:00,
2013-07-24 08:29:00,78.1,64.0,-100.00,NW,310,0.0,1.0,62,0.00,,,0.00,,2013-07-24 13:29:00,
2013-07-24 08:34:00,78.3,64.0,-100.00,NW,310,0.0,1.0,62,0.00,,,0.00,,2013-07-24 13:34:00,
2013-07-24 08:39:00,78.5,65.0,-100.00,WNW,296,0.0,1.0,65,0.00,,,0.00,,2013-07-24 13:39:00,
2013-07-24 08:44:00,78.7,73.0,-100.00,NW,310,0.0,1.0,85,0.00,,,0.00,,2013-07-24 13:44:00,
2013-07-24 08:49:00,80.1,73.0,-100.00,WNW,285,0.0,1.0,81,0.00,,,0.00,,2013-07-24 13:49:00,
2013-07-24 08:54:00,80.3,75.0,-100.00,NW,307,0.0,1.0,86,0.00,,,0.00,,2013-07-24 13:54:00,
2013-07-24 08:59:00,80.5,74.0,-100.00,WNW,296,0.0,1.0,81,0.00,,,0.00,,2013-07-24 13:59:00,
2013-07-24 09:04:00,80.6,74.0,-100.00,NW,313,0.0,1.0,82,0.00,,,0.00,,2013-07-24 14:04:00,
2013-07-24 09:09:00,80.6,74.0,-100.00,WNW,299,0.0,1.0,81,0.00,,,0.00,,2013-07-24 14:09:00,
2013-07-24 09:14:00,80.6,74.0,-100.00,WNW,285,0.0,1.0,83,0.00,,,0.00,,2013-07-24 14:14:00,
2013-07-24 09:19:00,80.8,74.0,-100.00,NW,316,0.0,1.0,80,0.00,,,0.00,,2013-07-24 14:19:00,
2013-07-24 09:24:00,82.2,65.0,-100.00,WNW,299,0.0,1.0,57,0.00,,,0.00,,2013-07-24 14:24:00,
2013-07-24 09:29:00,82.6,72.0,-100.00,NW,310,0.0,1.0,71,0.00,,,0.00,,2013-07-24 14:29:00,
2013-07-24 09:34:00,82.6,70.0,-100.00,WNW,288,0.0,1.0,66,0.00,,,0.00,,2013-07-24 14:34:00,
2013-07-24 09:39:00,82.9,64.0,-100.00,NNW,327,0.0,1.0,54,0.00,,,0.00,,2013-07-24 14:39:00,
2013-07-24 09:44:00,84.1,70.0,-100.00,NW,307,0.0,1.0,64,0.00,,,0.00,,2013-07-24 14:44:00,
2013-07-24 09:49:00,84.3,41.0,-100.00,NW,310,0.0,1.0,22,0.00,,,0.00,,2013-07-24 14:49:00,
2013-07-24 09:54:00,84.8,66.0,-100.00,NW,305,0.0,1.0,55,0.00,,,0.00,,2013-07-24 14:54:00,
2013-07-24 09:59:00,85.0,46.0,-100.00,West,265,0.0,1.0,26,0.00,,,0.00,,2013-07-24 14:59:00,
2013-07-24 10:04:00,85.8,43.0,-100.00,West,260,0.0,1.0,23,0.00,,,0.00,,2013-07-24 15:04:00,
2013-07-24 10:09:00,87.0,41.0,-100.00,WNW,294,0.0,1.0,20,0.00,,,0.00,,2013-07-24 15:09:00,
2013-07-24 10:14:00,85.1,41.0,-100.00,WSW,246,0.0,1.0,22,0.00,,,0.00,,2013-07-24 15:14:00,
2013-07-24 10:19:00,85.1,40.0,-100.00,WNW,288,0.0,1.0,21,0.00,,,0.00,,2013-07-24 15:19:00,
2013-07-24 10:24:00,85.6,38.0,-100.00,NW,322,0.0,1.0,19,0.00,,,0.00,,2013-07-24 15:24:00,
2013-07-24 10:29:00,85.6,39.0,-100.00,West,265,0.0,1.0,20,0.00,,,0.00,,2013-07-24 15:29:00,
2013-07-24 10:34:00,87.0,39.0,-100.00,West,265,0.0,1.0,19,0.00,,,0.00,,2013-07-24 15:34:00,
2013-07-24 10:39:00,87.4,37.0,-100.00,NW,307,0.0,1.0,17,0.00,,,0.00,,2013-07-24 15:39:00,
2013-07-24 10:44:00,89.0,38.0,-100.00,NW,310,0.0,0.0,17,0.00,,,0.00,,2013-07-24 15:44:00,
2013-07-24 10:49:00,89.2,37.0,-100.00,NW,307,0.0,1.0,16,0.00,,,0.00,,2013-07-24 15:49:00,
2013-07-24 10:59:00,87.5,34.0,-100.00,SW,220,0.0,1.0,15,0.00,,,0.00,,2013-07-24 15:59:00,
2013-07-24 11:04:00,91.1,35.0,-100.00,SW,220,0.0,0.0,14,0.00,,,0.00,,2013-07-24 16:04:00,
2013-07-24 11:09:00,91.6,33.0,-100.00,SW,220,0.0,0.0,13,0.00,,,0.00,,2013-07-24 16:09:00,
2013-07-24 11:14:00,91.3,31.0,-100.00,SW,220,0.0,0.0,12,0.00,,,0.00,,2013-07-24 16:14:00,
2013-07-24 11:19:00,91.0,26.0,-100.00,SW,220,0.0,0.0,10,0.00,,,0.00,,2013-07-24 16:19:00,
2013-07-24 11:24:00,89.8,30.0,-100.00,SW,220,0.0,0.0,12,0.00,,,0.00,,2013-07-24 16:24:00,
2013-07-24 11:29:00,91.1,29.0,-100.00,SW,220,0.0,0.0,11,0.00,,,0.00,,2013-07-24 16:29:00,
2013-07-24 11:34:00,91.1,29.0,-100.00,SW,220,0.0,0.0,11,0.00,,,0.00,,2013-07-24 16:34:00,
2013-07-24 11:39:00,91.0,29.0,-100.00,SW,220,0.0,0.0,11,0.00,,,0.00,,2013-07-24 16:39:00,
2013-07-24 11:44:00,89.9,26.0,-100.00,SW,220,0.0,0.0,10,0.00,,,0.00,,2013-07-24 16:44:00,
2013-07-24 11:49:00,91.4,27.0,-100.00,SW,220,0.0,0.0,10,0.00,,,0.00,,2013-07-24 16:49:00,
2013-07-24 11:54:00,91.5,24.0,-100.00,SW,220,0.0,0.0,9,0.00,,,0.00,,2013-07-24 16:54:00,
2013-07-24 11:59:00,91.7,27.0,-100.00,SW,220,0.0,0.0,10,0.00,,,0.00,,2013-07-24 16:59:00,
2013-07-24 12:04:00,93.0,25.0,-100.00,SW,220,0.0,0.0,9,0.00,,,0.00,,2013-07-24 17:04:00,
2013-07-24 12:09:00,91.6,24.0,-100.00,SW,220,0.0,0.0,9,0.00,,,0.00,,2013-07-24 17:09:00,
2013-07-24 12:14:00,91.0,26.0,-100.00,SW,220,0.0,0.0,10,0.00,,,0.00,,2013-07-24 17:14:00,
2013-07-24 12:19:00,91.1,26.0,-100.00,SW,220,0.0,0.0,10,0.00,,,0.00,,2013-07-24 17:19:00,
2013-07-24 12:24:00,91.0,26.0,-100.00,SW,220,0.0,0.0,10,0.00,,,0.00,,2013-07-24 17:24:00,
2013-07-24 12:34:00,89.7,25.0,-100.00,SW,220,0.0,0.0,10,0.00,,,0.00,,2013-07-24 17:34:00,
2013-07-24 12:39:00,91.1,21.0,-100.00,SW,220,0.0,0.0,8,0.00,,,0.00,,2013-07-24 17:39:00,
2013-07-24 12:44:00,89.7,23.0,-100.00,SW,220,0.0,0.0,9,0.00,,,0.00,,2013-07-24 17:44:00,
2013-07-24 12:49:00,91.4,24.0,-100.00,SW,220,0.0,0.0,9,0.00,,,0.00,,2013-07-24 17:49:00,
2013-07-24 12:54:00,93.6,23.0,-100.00,SW,220,0.0,0.0,8,0.00,,,0.00,,2013-07-24 17:54:00,
2013-07-24 12:59:00,91.8,22.0,-100.00,SW,220,0.0,0.0,8,0.00,,,0.00,,2013-07-24 17:59:00,
2013-07-24 13:04:00,91.0,21.0,-100.00,SW,220,0.0,0.0,8,0.00,,,0.00,,2013-07-24 18:04:00,
2013-07-24 13:09:00,93.3,23.0,-100.00,SW,220,0.0,0.0,8,0.00,,,0.00,,2013-07-24 18:09:00,
2013-07-24 13:14:00,93.1,19.0,-100.00,SW,220,0.0,0.0,7,0.00,,,0.00,,2013-07-24 18:14:00,
2013-07-24 13:19:00,91.4,18.0,-100.00,SW,220,0.0,0.0,7,0.00,,,0.00,,2013-07-24 18:19:00,
2013-07-24 13:24:00,93.1,19.0,-100.00,SW,220,0.0,0.0,7,0.00,,,0.00,,2013-07-24 18:24:00,
2013-07-24 13:29:00,93.5,20.0,-100.00,SW,220,0.0,0.0,7,0.00,,,0.00,,2013-07-24 18:29:00,
2013-07-24 13:34:00,93.5,20.0,-100.00,SW,220,0.0,0.0,7,0.00,,,0.00,,2013-07-24 18:34:00,
2013-07-24 13:39:00,89.6,23.0,-100.00,SW,220,0.0,0.0,9,0.00,,,0.00,,2013-07-24 18:39:00,
2013-07-24 13:44:00,89.8,23.0,-100.00,SW,220,0.0,0.0,9,0.00,,,0.00,,2013-07-24 18:44:00,
2013-07-24 13:49:00,91.3,24.0,-100.00,SW,220,0.0,0.0,9,0.00,,,0.00,,2013-07-24 18:49:00,
2013-07-24 13:54:00,93.0,23.0,-100.00,SW,220,0.0,0.0,8,0.00,,,0.00,,2013-07-24 18:54:00,
2013-07-24 13:59:00,89.6,23.0,-100.00,SW,220,0.0,0.0,9,0.00,,,0.00,,2013-07-24 18:59:00,
2013-07-24 14:04:00,89.7,23.0,-100.00,SW,220,0.0,0.0,9,0.00,,,0.00,,2013-07-24 19:04:00,
2013-07-24 14:09:00,91.3,21.0,-100.00,SW,220,0.0,0.0,8,0.00,,,0.00,,2013-07-24 19:09:00,
2013-07-24 14:14:00,91.2,21.0,-100.00,SW,220,0.0,0.0,8,0.00,,,0.00,,2013-07-24 19:14:00,
2013-07-24 14:19:00,94.3,17.0,-100.00,SW,220,0.0,0.0,6,0.00,,,0.00,,2013-07-24 19:19:00,
2013-07-24 14:24:00,94.6,17.0,-100.00,SW,220,0.0,0.0,6,0.00,,,0.00,,2013-07-24 19:24:00,
2013-07-24 14:29:00,94.5,17.0,-100.00,SW,220,0.0,0.0,6,0.00,,,0.00,,2013-07-24 19:29:00,
2013-07-24 14:34:00,94.5,17.0,-100.00,SW,220,0.0,0.0,6,0.00,,,0.00,,2013-07-24 19:34:00,
2013-07-24 14:39:00,93.8,16.0,-100.00,SW,220,0.0,0.0,6,0.00,,,0.00,,2013-07-24 19:39:00,
2013-07-24 14:44:00,93.6,16.0,-100.00,SW,220,0.0,0.0,6,0.00,,,0.00,,2013-07-24 19:44:00,
2013-07-24 14:49:00,94.7,13.0,-100.00,SW,220,0.0,0.0,5,0.00,,,0.00,,2013-07-24 19:49:00,
2013-07-24 14:54:00,94.3,13.0,-100.00,SW,220,0.0,0.0,5,0.00,,,0.00,,2013-07-24 19:54:00,
2013-07-24 14:59:00,93.6,16.0,-100.00,SW,220,0.0,0.0,6,0.00,,,0.00,,2013-07-24 19:59:00,
2013-07-24 15:04:00,94.5,13.0,-100.00,SW,220,0.0,0.0,5,0.00,,,0.00,,2013-07-24 20:04:00,
2013-07-24 15:09:00,94.6,13.0,-100.00,SW,220,0.0,0.0,5,0.00,,,0.00,,2013-07-24 20:09:00,
2013-07-24 15:14:00,94.4,17.0,-100.00,SW,220,0.0,0.0,6,0.00,,,0.00,,2013-07-24 20:14:00,
2013-07-24 15:19:00,94.5,13.0,-100.00,SW,220,0.0,0.0,5,0.00,,,0.00,,2013-07-24 20:19:00,
2013-07-24 15:24:00,94.6,13.0,-100.00,SW,220,0.0,0.0,5,0.00,,,0.00,,2013-07-24 20:24:00,
2013-07-24 15:29:00,94.6,13.0,-100.00,SW,220,0.0,0.0,5,0.00,,,0.00,,2013-07-24 20:29:00,
2013-07-24 15:34:00,94.0,17.0,-100.00,SW,220,0.0,0.0,6,0.00,,,0.00,,2013-07-24 20:34:00,
2013-07-24 15:39:00,94.2,12.0,-100.00,SW,220,0.0,0.0,5,0.00,,,0.00,,2013-07-24 20:39:00,
2013-07-24 15:44:00,94.0,17.0,-100.00,SW,220,0.0,0.0,6,0.00,,,0.00,,2013-07-24 20:44:00,
2013-07-24 15:49:00,94.2,17.0,-100.00,SW,220,0.0,0.0,6,0.00,,,0.00,,2013-07-24 20:49:00,
2013-07-24 15:54:00,94.5,13.0,-100.00,SW,220,0.0,0.0,5,0.00,,,0.00,,2013-07-24 20:54:00,
2013-07-24 15:59:00,96.3,14.0,-100.00,SW,220,0.0,0.0,5,0.00,,,0.00,,2013-07-24 20:59:00,
2013-07-24 16:04:00,98.3,15.0,-100.00,SW,220,0.0,0.0,5,0.00,,,0.00,,2013-07-24 21:04:00,
2013-07-24 16:09:00,96.8,14.0,-100.00,SW,220,0.0,0.0,5,0.00,,,0.00,,2013-07-24 21:09:00,
2013-07-24 16:14:00,96.8,14.0,-100.00,SW,220,0.0,0.0,5,0.00,,,0.00,,2013-07-24 21:14:00,
2013-07-24 16:19:00,96.8,14.0,-100.00,SW,220,0.0,0.0,5,0.00,,,0.00,,2013-07-24 21:19:00,
2013-07-24 16:24:00,96.8,14.0,-100.00,SW,220,0.0,0.0,5,0.00,,,0.00,,2013-07-24 21:24:00,
2013-07-24 16:29:00,96.8,14.0,-100.00,SW,220,0.0,0.0,5,0.00,,,0.00,,2013-07-24 21:29:00,
2013-07-24 16:59:00,93.5,16.0,-100.00,SW,220,0.0,0.0,6,0.00,,,0.00,,2013-07-24 21:59:00,
2013-07-24 17:04:00,93.9,12.0,-100.00,SW,220,0.0,0.0,5,0.00,,,0.00,,2013-07-24 22:04:00,
2013-07-24 17:09:00,93.9,12.0,-100.00,SW,220,0.0,0.0,5,0.00,,,0.00,,2013-07-24 22:09:00,
2013-07-24 17:14:00,93.6,16.0,-100.00,SW,220,0.0,0.0,6,0.00,,,0.00,,2013-07-24 22:14:00,
2013-07-24 17:19:00,93.3,16.0,-100.00,SW,220,0.0,0.0,6,0.00,,,0.00,,2013-07-24 22:19:00,
2013-07-24 17:24:00,93.7,12.0,-100.00,SW,220,0.0,0.0,5,0.00,,,0.00,,2013-07-24 22:24:00,
2013-07-24 17:29:00,93.5,16.0,-100.00,SW,220,0.0,0.0,6,0.00,,,0.00,,2013-07-24 22:29:00,
2013-07-24 17:34:00,93.4,12.0,-100.00,SW,220,0.0,0.0,5,0.00,,,0.00,,2013-07-24 22:34:00,
2013-07-24 17:44:00,94.5,13.0,-100.00,SW,220,0.0,0.0,5,0.00,,,0.00,,2013-07-24 22:44:00,
2013-07-24 17:49:00,94.3,13.0,-100.00,SW,220,0.0,0.0,5,0.00,,,0.00,,2013-07-24 22:49:00,
2013-07-24 17:54:00,94.3,13.0,-100.00,SW,220,0.0,0.0,5,0.00,,,0.00,,2013-07-24 22:54:00,
2013-07-24 17:59:00,94.0,12.0,-100.00,SW,220,0.0,0.0,5,0.00,,,0.00,,2013-07-24 22:59:00,
2013-07-24 18:04:00,93.8,12.0,-100.00,SW,220,0.0,0.0,5,0.00,,,0.00,,2013-07-24 23:04:00,
2013-07-24 18:09:00,93.6,16.0,-100.00,SW,220,0.0,0.0,6,0.00,,,0.00,,2013-07-24 23:09:00,
2013-07-24 18:14:00,93.6,16.0,-100.00,SW,220,0.0,0.0,6,0.00,,,0.00,,2013-07-24 23:14:00,
2013-07-24 18:19:00,93.5,16.0,-100.00,SW,220,0.0,0.0,6,0.00,,,0.00,,2013-07-24 23:19:00,
2013-07-24 18:24:00,93.3,12.0,-100.00,SW,220,0.0,0.0,5,0.00,,,0.00,,2013-07-24 23:24:00,
2013-07-24 18:29:00,93.3,12.0,-100.00,SW,220,0.0,0.0,5,0.00,,,0.00,,2013-07-24 23:29:00,
2013-07-24 18:34:00,93.5,16.0,-100.00,SW,220,0.0,0.0,6,0.00,,,0.00,,2013-07-24 23:34:00,
2013-07-24 18:39:00,93.5,16.0,-100.00,SW,220,0.0,0.0,6,0.00,,,0.00,,2013-07-24 23:39:00,
2013-07-24 18:44:00,93.3,16.0,-100.00,SW,220,0.0,0.0,6,0.00,,,0.00,,2013-07-24 23:44:00,
2013-07-24 18:49:00,93.3,16.0,-100.00,SW,220,0.0,0.0,6,0.00,,,0.00,,2013-07-24 23:49:00,
2013-07-24 18:54:00,93.0,19.0,-100.00,SW,220,0.0,0.0,7,0.00,,,0.00,,2013-07-24 23:54:00,
2013-07-24 18:59:00,91.3,18.0,-100.00,SW,220,0.0,0.0,7,0.00,,,0.00,,2013-07-24 23:59:00,
2013-07-24 19:04:00,91.1,21.0,-100.00,SW,220,0.0,0.0,8,0.00,,,0.00,,2013-07-25 00:04:00,
2013-07-24 19:09:00,91.2,21.0,-100.00,SW,220,0.0,0.0,8,0.00,,,0.00,,2013-07-25 00:09:00,
2013-07-24 19:14:00,91.0,21.0,-100.00,SW,220,0.0,0.0,8,0.00,,,0.00,,2013-07-25 00:14:00,
2013-07-24 19:19:00,91.0,21.0,-100.00,SW,220,0.0,0.0,8,0.00,,,0.00,,2013-07-25 00:19:00,
2013-07-24 19:24:00,91.0,21.0,-100.00,SW,220,0.0,0.0,8,0.00,,,0.00,,2013-07-25 00:24:00,
2013-07-24 19:29:00,91.4,21.0,-100.00,SW,220,0.0,0.0,8,0.00,,,0.00,,2013-07-25 00:29:00,
2013-07-24 19:34:00,91.8,22.0,-100.00,SW,220,0.0,0.0,8,0.00,,,0.00,,2013-07-25 00:34:00,
2013-07-24 19:39:00,91.4,24.0,-100.00,SW,220,0.0,0.0,9,0.00,,,0.00,,2013-07-25 00:39:00,
2013-07-24 19:44:00,91.0,24.0,-100.00,SW,220,0.0,0.0,9,0.00,,,0.00,,2013-07-25 00:44:00,
2013-07-24 19:49:00,89.5,25.0,-100.00,SW,220,0.0,0.0,10,0.00,,,0.00,,2013-07-25 00:49:00,
2013-07-24 19:54:00,89.5,25.0,-100.00,SW,220,0.0,0.0,10,0.00,,,0.00,,2013-07-25 00:54:00,
2013-07-24 19:59:00,89.2,27.0,-100.00,SW,220,0.0,0.0,11,0.00,,,0.00,,2013-07-25 00:59:00,
2013-07-24 20:04:00,89.2,27.0,-100.00,West,265,0.0,0.0,11,0.00,,,0.00,,2013-07-25 01:04:00,
2013-07-24 20:09:00,87.9,28.0,-100.00,West,265,0.0,0.0,12,0.00,,,0.00,,2013-07-25 01:09:00,
2013-07-24 20:14:00,87.6,28.0,-100.00,West,265,0.0,0.0,12,0.00,,,0.00,,2013-07-25 01:14:00,
2013-07-24 20:19:00,87.3,30.0,-100.00,West,265,0.0,0.0,13,0.00,,,0.00,,2013-07-25 01:19:00,
2013-07-24 20:24:00,85.9,29.0,-100.00,West,265,0.0,0.0,13,0.00,,,0.00,,2013-07-25 01:24:00,
2013-07-24 20:29:00,85.6,29.0,-100.00,West,265,0.0,0.0,13,0.00,,,0.00,,2013-07-25 01:29:00,
2013-07-24 20:34:00,85.3,30.0,-100.00,West,265,0.0,0.0,14,0.00,,,0.00,,2013-07-25 01:34:00,
2013-07-24 20:39:00,85.0,30.0,-100.00,West,265,0.0,0.0,14,0.00,,,0.00,,2013-07-25 01:39:00,
2013-07-24 20:44:00,84.8,30.0,-100.00,West,265,0.0,0.0,14,0.00,,,0.00,,2013-07-25 01:44:00,
2013-07-24 20:49:00,84.5,31.0,-100.00,West,265,0.0,0.0,15,0.00,,,0.00,,2013-07-25 01:49:00,
2013-07-24 20:54:00,84.1,33.0,-100.00,West,265,0.0,0.0,16,0.00,,,0.00,,2013-07-25 01:54:00,
2013-07-24 21:04:00,84.0,35.0,-100.00,West,265,0.0,0.0,18,0.00,,,0.00,,2013-07-25 02:04:00,
2013-07-24 21:09:00,82.7,34.0,-100.00,West,265,0.0,0.0,18,0.00,,,0.00,,2013-07-25 02:09:00,
2013-07-24 21:14:00,82.5,36.0,-100.00,West,265,0.0,0.0,19,0.00,,,0.00,,2013-07-25 02:14:00,
2013-07-24 21:19:00,82.4,37.0,-100.00,West,265,0.0,0.0,20,0.00,,,0.00,,2013-07-25 02:19:00,
2013-07-24 21:24:00,82.3,37.0,-100.00,West,265,0.0,0.0,20,0.00,,,0.00,,2013-07-25 02:24:00,
2013-07-24 21:29:00,82.1,38.0,-100.00,West,265,0.0,0.0,21,0.00,,,0.00,,2013-07-25 02:29:00,
2013-07-24 21:34:00,82.0,38.0,-100.00,West,265,0.0,0.0,21,0.00,,,0.00,,2013-07-25 02:34:00,
2013-07-24 21:39:00,80.9,38.0,-100.00,West,265,0.0,0.0,22,0.00,,,0.00,,2013-07-25 02:39:00,
2013-07-24 21:44:00,80.6,38.0,-100.00,West,265,0.0,0.0,22,0.00,,,0.00,,2013-07-25 02:44:00,
2013-07-24 21:49:00,80.4,39.0,-100.00,West,265,0.0,0.0,23,0.00,,,0.00,,2013-07-25 02:49:00,
2013-07-24 21:54:00,80.4,39.0,-100.00,West,265,0.0,0.0,23,0.00,,,0.00,,2013-07-25 02:54:00,
2013-07-24 21:59:00,80.3,39.0,-100.00,West,265,0.0,0.0,23,0.00,,,0.00,,2013-07-25 02:59:00,
2013-07-24 22:04:00,80.3,40.0,-100.00,West,265,0.0,0.0,24,0.00,,,0.00,,2013-07-25 03:04:00,
2013-07-24 22:14:00,78.8,38.0,-100.00,West,265,0.0,0.0,24,0.00,,,0.00,,2013-07-25 03:14:00,
2013-07-24 22:24:00,78.5,76.0,-100.00,West,265,0.0,0.0,94,0.00,,,0.00,,2013-07-25 03:24:00,
2013-07-24 22:29:00,78.4,76.0,-100.00,West,265,0.0,0.0,94,0.00,,,0.00,,2013-07-25 03:29:00,
2013-07-24 22:39:00,78.3,77.0,-100.00,West,265,0.0,0.0,96,0.00,,,0.00,,2013-07-25 03:39:00,
2013-07-24 22:49:00,78.3,71.0,-100.00,West,265,0.0,0.0,81,0.00,,,0.00,,2013-07-25 03:49:00,
2013-07-24 22:54:00,78.3,72.0,-100.00,West,265,0.0,0.0,82,0.00,,,0.00,,2013-07-25 03:54:00,
2013-07-24 22:59:00,78.1,71.0,-100.00,West,265,0.0,0.0,81,0.00,,,0.00,,2013-07-25 03:59:00,
2013-07-24 23:04:00,78.0,71.0,-100.00,West,265,0.0,0.0,81,0.00,,,0.00,,2013-07-25 04:04:00,
2013-07-24 23:09:00,76.7,69.0,-100.00,West,265,0.0,0.0,79,0.00,,,0.00,,2013-07-25 04:09:00,
2013-07-24 23:14:00,76.8,43.0,-100.00,West,265,0.0,0.0,30,0.00,,,0.00,,2013-07-25 04:14:00,
2013-07-24 23:19:00,76.8,40.0,-100.00,West,265,0.0,0.0,27,0.00,,,0.00,,2013-07-25 04:19:00,
2013-07-24 23:24:00,76.8,64.0,-100.00,West,265,0.0,0.0,65,0.00,,,0.00,,2013-07-25 04:24:00,
2013-07-24 23:29:00,76.8,73.0,-100.00,West,265,0.0,0.0,89,0.00,,,0.00,,2013-07-25 04:29:00,
2013-07-24 23:34:00,76.8,70.0,-100.00,West,265,0.0,0.0,81,0.00,,,0.00,,2013-07-25 04:34:00,
2013-07-24 23:39:00,76.5,65.0,-100.00,West,265,0.0,0.0,69,0.00,,,0.00,,2013-07-25 04:39:00,
2013-07-24 23:44:00,76.6,60.0,-100.00,West,265,0.0,0.0,58,0.00,,,0.00,,2013-07-25 04:44:00,
2013-07-24 23:49:00,76.6,63.0,-100.00,West,265,0.0,0.0,64,0.00,,,0.00,,2013-07-25 04:49:00,
2013-07-24 23:54:00,76.4,71.0,-100.00,West,265,0.0,0.0,85,0.00,,,0.00,,2013-07-25 04:54:00,
2013-07-24 23:59:00,76.5,71.0,-100.00,West,265,0.0,0.0,86,0.00,,,0.00,,2013-07-25 04:59:00,